• In Österreich
  • Länderverzeichnis
  • Für 7 Tage
  • Wassertemperatur
  • Satellitenkarten
  • Wetterkarte
  • News
  • Widgets
  • user-avatar
    Anmelden

    Stündliche Wetter Belém

    Heute, 21 April, Samstag

    Zeit Temperatur Niederschläge Wind Luftdruck Luftfeuchtigkeit
    00:00 +26°C° 0,1 mm 1 m/S 759 mmHg 96%
    01:00 +26°C° 0,2 mm 1 m/S 758 mmHg 97%
    02:00 +25°C° 0,2 mm 1 m/S 758 mmHg 97%
    03:00 +25°C° 0,2 mm 1 m/S 758 mmHg 97%
    04:00 +25°C° 0,2 mm 1 m/S 758 mmHg 97%
    05:00 +25°C° 0,2 mm 1 m/S 758 mmHg 98%
    06:00 +25°C° 0,2 mm 1 m/S 758 mmHg 98%
    07:00 +26°C° 0,3 mm 1 m/S 758 mmHg 95%
    08:00 +27°C° 0,3 mm 1 m/S 758 mmHg 93%
    09:00 +28°C° 0,3 mm 1 m/S 759 mmHg 90%
    10:00 +30°C° 0,2 mm 1 m/S 759 mmHg 80%
    11:00 +32°C° 0,2 mm 1 m/S 758 mmHg 71%
    12:00 +33°C° 0,2 mm 1 m/S 758 mmHg 61%
    13:00 +33°C° 0,8 mm 1 m/S 758 mmHg 67%
    14:00 +32°C° 0,8 mm 1 m/S 757 mmHg 73%
    15:00 +31°C° 0,8 mm 1 m/S 756 mmHg 80%
    16:00 +30°C° 0,9 mm 1 m/S 756 mmHg 84%
    17:00 +29°C° 0,9 mm 1 m/S 756 mmHg 88%
    18:00 +28°C° 0,9 mm 1 m/S 756 mmHg 92%
    19:00 +27°C° 1,4 mm 1 m/S 757 mmHg 93%
    20:00 +27°C° 1,4 mm 2 m/S 757 mmHg 94%
    21:00 +26°C° 1,4 mm 2 m/S 758 mmHg 95%
    22:00 +26°C° 0 mm 2 m/S 758 mmHg 95%
    23:00 +26°C° 0 mm 1 m/S 758 mmHg 96%

    Morgen, 22 April, Sonntag

    Zeit Temperatur Niederschläge Wind Luftdruck Luftfeuchtigkeit
    00:00 +25°C° 0 mm 1 m/S 758 mmHg 96%
    01:00 +25°C° 0 mm 1 m/S 758 mmHg 96%
    02:00 +25°C° 0 mm 1 m/S 757 mmHg 96%
    03:00 +25°C° 0 mm 1 m/S 757 mmHg 96%
    04:00 +25°C° 0,2 mm 1 m/S 757 mmHg 97%
    05:00 +25°C° 0,2 mm 1 m/S 757 mmHg 97%
    06:00 +25°C° 0,2 mm 1 m/S 757 mmHg 97%
    07:00 +26°C° 0,2 mm 1 m/S 757 mmHg 92%
    08:00 +28°C° 0,2 mm 1 m/S 758 mmHg 86%
    09:00 +29°C° 0,2 mm 1 m/S 758 mmHg 81%
    10:00 +30°C° 0,7 mm 1 m/S 758 mmHg 76%
    11:00 +31°C° 0,7 mm 1 m/S 758 mmHg 70%
    12:00 +32°C° 0,7 mm 2 m/S 758 mmHg 65%
    13:00 +32°C° 1,1 mm 2 m/S 757 mmHg 71%
    14:00 +31°C° 1,1 mm 2 m/S 756 mmHg 77%
    15:00 +31°C° 1,1 mm 2 m/S 755 mmHg 83%
    16:00 +29°C° 1,7 mm 2 m/S 756 mmHg 87%
    17:00 +28°C° 1,7 mm 2 m/S 756 mmHg 90%
    18:00 +27°C° 1,7 mm 2 m/S 756 mmHg 94%
    19:00 +27°C° 0,5 mm 2 m/S 757 mmHg 94%
    20:00 +26°C° 0,5 mm 2 m/S 757 mmHg 95%
    21:00 +26°C° 0,5 mm 2 m/S 758 mmHg 95%
    22:00 +26°C° 0 mm 2 m/S 758 mmHg 95%
    23:00 +26°C° 0 mm 1 m/S 758 mmHg 95%

    übermorgen, 23 April, Montag

    Zeit Temperatur Niederschläge Wind Luftdruck Luftfeuchtigkeit
    00:00 +26°C° 0 mm 1 m/S 758 mmHg 95%
    01:00 +26°C° 0,1 mm 1 m/S 758 mmHg 96%
    02:00 +25°C° 0,1 mm 1 m/S 757 mmHg 96%
    03:00 +25°C° 0,1 mm 1 m/S 756 mmHg 96%
    04:00 +25°C° 0,1 mm 1 m/S 757 mmHg 96%
    05:00 +25°C° 0,1 mm 1 m/S 757 mmHg 97%
    06:00 +25°C° 0,1 mm 1 m/S 757 mmHg 97%
    07:00 +26°C° 0,3 mm 1 m/S 758 mmHg 94%
    08:00 +28°C° 0,3 mm 1 m/S 758 mmHg 90%
    09:00 +29°C° 0,3 mm 1 m/S 759 mmHg 87%
    10:00 +30°C° 0,3 mm 1 m/S 758 mmHg 79%
    11:00 +32°C° 0,3 mm 1 m/S 758 mmHg 71%
    12:00 +33°C° 0,3 mm 1 m/S 758 mmHg 63%
    13:00 +34°C° 0,5 mm 2 m/S 757 mmHg 66%
    14:00 +32°C° 0,5 mm 2 m/S 756 mmHg 69%
    15:00 +32°C° 0,5 mm 2 m/S 756 mmHg 72%
    16:00 +30°C° 1,7 mm 2 m/S 756 mmHg 79%
    17:00 +29°C° 1,7 mm 2 m/S 756 mmHg 86%
    18:00 +27°C° 1,7 mm 2 m/S 757 mmHg 94%
    19:00 +26°C° 1 mm 2 m/S 757 mmHg 94%
    20:00 +26°C° 1 mm 2 m/S 758 mmHg 94%
    21:00 +25°C° 1 mm 2 m/S 759 mmHg 94%
    22:00 +25°C° 1 mm 2 m/S 759 mmHg 95%
    23:00 +25°C° 1 mm 2 m/S 759 mmHg 96%

    24 April, Dienstag

    Zeit Temperatur Niederschläge Wind Luftdruck Luftfeuchtigkeit
    00:00 +24°C° 1 mm 1 m/S 759 mmHg 96%
    01:00 +24°C° 1 mm 1 m/S 758 mmHg 96%
    02:00 +24°C° 1 mm 1 m/S 758 mmHg 97%
    03:00 +24°C° 1 mm 1 m/S 757 mmHg 97%
    04:00 +24°C° 0,2 mm 1 m/S 757 mmHg 97%
    05:00 +24°C° 0,2 mm 1 m/S 758 mmHg 97%
    06:00 +24°C° 0,2 mm 1 m/S 758 mmHg 97%
    07:00 +25°C° 0,1 mm 1 m/S 759 mmHg 95%
    08:00 +26°C° 0,1 mm 1 m/S 759 mmHg 93%
    09:00 +27°C° 0,1 mm 2 m/S 760 mmHg 90%
    10:00 +28°C° 0,4 mm 2 m/S 759 mmHg 85%
    11:00 +29°C° 0,4 mm 2 m/S 759 mmHg 79%
    12:00 +31°C° 0,4 mm 2 m/S 759 mmHg 74%
    13:00 +30°C° 0,9 mm 2 m/S 758 mmHg 76%
    14:00 +30°C° 0,9 mm 2 m/S 757 mmHg 79%
    15:00 +30°C° 0,9 mm 2 m/S 757 mmHg 81%
    16:00 +29°C° 0,8 mm 2 m/S 757 mmHg 84%
    17:00 +28°C° 0,8 mm 2 m/S 757 mmHg 86%
    18:00 +28°C° 0,8 mm 2 m/S 757 mmHg 89%
    19:00 +27°C° 0,6 mm 2 m/S 758 mmHg 90%
    20:00 +27°C° 0,6 mm 2 m/S 758 mmHg 92%
    21:00 +26°C° 0,6 mm 1 m/S 758 mmHg 93%
    22:00 +26°C° 0 mm 1 m/S 758 mmHg 94%
    23:00 +26°C° 0 mm 1 m/S 759 mmHg 94%

    25 April, Mittwoch

    Zeit Temperatur Niederschläge Wind Luftdruck Luftfeuchtigkeit
    00:00 +26°C° 0 mm 1 m/S 759 mmHg 94%
    01:00 +25°C° 0 mm 1 m/S 758 mmHg 95%
    02:00 +25°C° 0 mm 1 m/S 758 mmHg 96%
    03:00 +23°C° 0 mm 0 m/S 758 mmHg 96%
    04:00 +25°C° 0 mm 1 m/S 758 mmHg 97%
    05:00 +24°C° 0 mm 1 m/S 758 mmHg 97%
    06:00 +24°C° 0 mm 1 m/S 758 mmHg 98%
    07:00 +26°C° 0 mm 1 m/S 759 mmHg 92%
    08:00 +27°C° 0 mm 1 m/S 759 mmHg 86%
    09:00 +28°C° 0 mm 1 m/S 760 mmHg 80%
    10:00 +30°C° 0 mm 1 m/S 759 mmHg 72%
    11:00 +32°C° 0 mm 1 m/S 759 mmHg 63%
    12:00 +34°C° 0 mm 1 m/S 758 mmHg 54%
    13:00 +34°C° 0,6 mm 2 m/S 758 mmHg 60%
    14:00 +34°C° 0,6 mm 2 m/S 757 mmHg 65%
    15:00 +32°C° 0,6 mm 2 m/S 756 mmHg 70%
    16:00 +31°C° 1,5 mm 2 m/S 756 mmHg 78%
    17:00 +29°C° 1,5 mm 2 m/S 756 mmHg 85%
    18:00 +27°C° 1,5 mm 1 m/S 756 mmHg 93%
    19:00 +27°C° 1,1 mm 1 m/S 757 mmHg 94%
    20:00 +26°C° 1,1 mm 1 m/S 758 mmHg 94%
    21:00 +26°C° 1,1 mm 1 m/S 758 mmHg 95%
    22:00 +26°C° 0,1 mm 1 m/S 758 mmHg 95%
    23:00 +26°C° 0,1 mm 1 m/S 758 mmHg 95%

    26 April, Donnerstag

    Zeit Temperatur Niederschläge Wind Luftdruck Luftfeuchtigkeit
    00:00 +26°C° 0,1 mm 1 m/S 758 mmHg 95%
    01:00 +25°C° 0 mm 1 m/S 758 mmHg 96%
    02:00 +25°C° 0 mm 1 m/S 757 mmHg 96%
    03:00 +25°C° 0 mm 1 m/S 757 mmHg 96%
    04:00 +25°C° 0 mm 1 m/S 757 mmHg 96%
    05:00 +25°C° 0 mm 1 m/S 757 mmHg 97%
    06:00 +25°C° 0 mm 1 m/S 757 mmHg 97%
    07:00 +26°C° 0 mm 1 m/S 758 mmHg 91%
    08:00 +28°C° 0 mm 1 m/S 758 mmHg 84%
    09:00 +29°C° 0 mm 1 m/S 759 mmHg 78%
    10:00 +30°C° 0,2 mm 1 m/S 759 mmHg 73%
    11:00 +32°C° 0,2 mm 1 m/S 758 mmHg 69%
    12:00 +33°C° 0,2 mm 1 m/S 758 mmHg 65%
    13:00 +32°C° 0,9 mm 1 m/S 757 mmHg 70%
    14:00 +32°C° 0,9 mm 1 m/S 756 mmHg 75%
    15:00 +31°C° 0,9 mm 1 m/S 756 mmHg 80%
    16:00 +30°C° 1 mm 1 m/S 756 mmHg 84%
    17:00 +29°C° 1 mm 1 m/S 756 mmHg 88%
    18:00 +28°C° 1 mm 2 m/S 756 mmHg 92%
    19:00 +27°C° 0,3 mm 1 m/S 757 mmHg 93%
    20:00 +27°C° 0,3 mm 1 m/S 757 mmHg 94%
    21:00 +26°C° 0,3 mm 1 m/S 758 mmHg 95%
    22:00 +26°C° 0,2 mm 1 m/S 758 mmHg 95%
    23:00 +26°C° 0,2 mm 1 m/S 758 mmHg 95%
    Mehr zeigen